Time,TemperatureF,DewpointF,PressureIn,WindDirection,WindDirectionDegrees,WindSpeedMPH,WindSpeedGustMPH,Humidity,HourlyPrecipIn,Conditions,Clouds,dailyrainin,SolarRadiationWatts/m^2,SoftwareType,DateUTC
2013-04-19 00:09:00,51.1,48.0,30.21,SE,137,0.0,2.0,89,0.00,,,0.00,0,weatherlink.com 1.10,2013-04-19 07:09:00,
2013-04-19 00:24:00,51.3,48.0,30.21,ESE,121,1.0,3.0,89,0.00,,,0.00,0,weatherlink.com 1.10,2013-04-19 07:24:00,
2013-04-19 00:39:00,51.5,48.0,30.21,SE,128,2.0,4.0,89,0.00,,,0.00,0,weatherlink.com 1.10,2013-04-19 07:39:00,
2013-04-19 00:54:00,51.4,49.0,30.21,SE,128,1.0,4.0,90,0.00,,,0.00,0,weatherlink.com 1.10,2013-04-19 07:54:00,
2013-04-19 01:09:00,51.3,49.0,30.21,ESE,110,2.0,3.0,90,0.00,,,0.00,0,weatherlink.com 1.10,2013-04-19 08:09:00,
2013-04-19 01:24:00,51.1,48.0,30.21,ESE,113,2.0,4.0,90,0.00,,,0.00,0,weatherlink.com 1.10,2013-04-19 08:24:00,
2013-04-19 01:39:00,50.8,48.0,30.20,SE,128,3.0,3.0,91,0.00,,,0.00,0,weatherlink.com 1.10,2013-04-19 08:39:00,
2013-04-19 01:54:00,50.7,48.0,30.20,SSE,153,0.0,3.0,91,0.00,,,0.00,0,weatherlink.com 1.10,2013-04-19 08:54:00,
2013-04-19 02:09:00,50.6,48.0,30.20,SE,131,2.0,3.0,91,0.00,,,0.00,0,weatherlink.com 1.10,2013-04-19 09:09:00,
2013-04-19 02:24:00,50.4,48.0,30.20,SE,132,0.0,2.0,91,0.00,,,0.00,0,weatherlink.com 1.10,2013-04-19 09:24:00,
2013-04-19 02:39:00,50.1,48.0,30.20,East,101,0.0,1.0,92,0.00,,,0.00,0,weatherlink.com 1.10,2013-04-19 09:39:00,
2013-04-19 02:54:00,50.0,48.0,30.20,SE,133,0.0,1.0,92,0.00,,,0.00,0,weatherlink.com 1.10,2013-04-19 09:54:00,
2013-04-19 03:09:00,50.1,48.0,30.20,ESE,123,2.0,3.0,92,0.00,,,0.00,0,weatherlink.com 1.10,2013-04-19 10:09:00,
2013-04-19 03:24:00,50.3,48.0,30.20,SE,132,0.0,2.0,92,0.00,,,0.00,0,weatherlink.com 1.10,2013-04-19 10:24:00,
2013-04-19 03:39:00,50.3,48.0,30.20,ESE,115,1.0,3.0,92,0.00,,,0.00,0,weatherlink.com 1.10,2013-04-19 10:39:00,
2013-04-19 03:54:00,50.1,48.0,30.20,SE,140,0.0,3.0,92,0.00,,,0.00,0,weatherlink.com 1.10,2013-04-19 10:54:00,
2013-04-19 04:09:00,50.0,48.0,30.20,ENE,73,0.0,4.0,93,0.00,,,0.00,0,weatherlink.com 1.10,2013-04-19 11:09:00,
2013-04-19 04:24:00,49.8,48.0,30.20,SE,130,3.0,4.0,93,0.00,,,0.00,0,weatherlink.com 1.10,2013-04-19 11:24:00,
2013-04-19 04:39:00,49.7,48.0,30.21,ESE,118,1.0,3.0,93,0.00,,,0.00,0,weatherlink.com 1.10,2013-04-19 11:39:00,
2013-04-19 04:54:00,49.7,48.0,30.21,SE,125,2.0,3.0,93,0.00,,,0.00,0,weatherlink.com 1.10,2013-04-19 11:54:00,
2013-04-19 05:10:00,49.6,48.0,30.21,SE,134,2.0,3.0,93,0.00,,,0.00,0,weatherlink.com 1.10,2013-04-19 12:10:00,
2013-04-19 05:25:00,49.5,48.0,30.21,ESE,119,2.0,4.0,94,0.00,,,0.00,0,weatherlink.com 1.10,2013-04-19 12:25:00,
2013-04-19 05:40:00,49.5,48.0,30.20,ESE,106,1.0,4.0,94,0.00,,,0.00,0,weatherlink.com 1.10,2013-04-19 12:40:00,
2013-04-19 05:55:00,49.5,48.0,30.21,ESE,106,0.0,2.0,93,0.00,,,0.00,0,weatherlink.com 1.10,2013-04-19 12:55:00,
2013-04-19 06:10:00,49.0,47.0,30.21,ESE,107,0.0,0.0,94,0.00,,,0.00,0,weatherlink.com 1.10,2013-04-19 13:10:00,
2013-04-19 06:25:00,48.9,47.0,30.21,SE,133,1.0,2.0,94,0.00,,,0.00,0,weatherlink.com 1.10,2013-04-19 13:25:00,
2013-04-19 06:40:00,49.6,48.0,30.22,SE,128,0.0,2.0,94,0.00,,,0.00,0,weatherlink.com 1.10,2013-04-19 13:40:00,
2013-04-19 06:55:00,49.7,48.0,30.21,SE,130,0.0,2.0,94,0.00,,,0.00,0,weatherlink.com 1.10,2013-04-19 13:55:00,
2013-04-19 07:10:00,49.7,48.0,30.22,ESE,115,2.0,3.0,94,0.00,,,0.00,0,weatherlink.com 1.10,2013-04-19 14:10:00,
2013-04-19 07:25:00,50.0,48.0,30.21,ESE,121,1.0,3.0,94,0.00,,,0.00,0,weatherlink.com 1.10,2013-04-19 14:25:00,
2013-04-19 07:40:00,50.1,49.0,30.22,SE,132,1.0,4.0,94,0.00,,,0.00,0,weatherlink.com 1.10,2013-04-19 14:40:00,
2013-04-19 07:55:00,50.6,49.0,30.23,SE,138,1.0,1.0,94,0.00,,,0.00,0,weatherlink.com 1.10,2013-04-19 14:55:00,
2013-04-19 08:10:00,51.7,50.0,30.23,SE,141,1.0,2.0,94,0.00,,,0.00,0,weatherlink.com 1.10,2013-04-19 15:10:00,
2013-04-19 08:25:00,53.8,51.0,30.23,SSE,155,2.0,5.0,89,0.00,,,0.00,0,weatherlink.com 1.10,2013-04-19 15:25:00,
2013-04-19 08:40:00,55.4,51.0,30.23,East,100,3.0,6.0,84,0.00,,,0.00,0,weatherlink.com 1.10,2013-04-19 15:40:00,
2013-04-19 08:55:00,55.6,52.0,30.23,SSE,150,2.0,6.0,86,0.00,,,0.00,0,weatherlink.com 1.10,2013-04-19 15:55:00,
2013-04-19 09:10:00,55.4,51.0,30.23,ESE,118,1.0,6.0,86,0.00,,,0.00,0,weatherlink.com 1.10,2013-04-19 16:10:00,
2013-04-19 09:25:00,56.1,51.0,30.23,SSE,148,3.0,5.0,83,0.00,,,0.00,0,weatherlink.com 1.10,2013-04-19 16:25:00,
2013-04-19 09:40:00,56.6,52.0,30.23,SSW,195,2.0,4.0,83,0.00,,,0.00,0,weatherlink.com 1.10,2013-04-19 16:40:00,
2013-04-19 09:55:00,57.0,51.0,30.23,South,184,4.0,6.0,81,0.00,,,0.00,0,weatherlink.com 1.10,2013-04-19 16:55:00,
2013-04-19 10:10:00,57.5,52.0,30.23,South,180,2.0,5.0,81,0.00,,,0.00,0,weatherlink.com 1.10,2013-04-19 17:10:00,
2013-04-19 10:25:00,58.8,52.0,30.23,SSE,156,1.0,4.0,78,0.00,,,0.00,0,weatherlink.com 1.10,2013-04-19 17:25:00,
2013-04-19 10:40:00,59.9,52.0,30.23,SE,142,1.0,3.0,76,0.00,,,0.00,0,weatherlink.com 1.10,2013-04-19 17:40:00,
2013-04-19 10:55:00,61.4,53.0,30.23,SSW,207,4.0,4.0,73,0.00,,,0.00,0,weatherlink.com 1.10,2013-04-19 17:55:00,
2013-04-19 11:10:00,63.0,52.0,30.23,SE,133,1.0,6.0,68,0.00,,,0.00,0,weatherlink.com 1.10,2013-04-19 18:10:00,
2013-04-19 11:25:00,64.2,53.0,30.22,SSE,159,1.0,4.0,66,0.00,,,0.00,0,weatherlink.com 1.10,2013-04-19 18:25:00,
2013-04-19 11:40:00,65.4,54.0,30.22,WSW,256,2.0,5.0,66,0.00,,,0.00,0,weatherlink.com 1.10,2013-04-19 18:40:00,
2013-04-19 11:55:00,67.0,53.0,30.22,SSW,202,2.0,5.0,62,0.00,,,0.00,0,weatherlink.com 1.10,2013-04-19 18:55:00,
2013-04-19 12:10:00,67.6,52.0,30.21,SSW,209,0.0,4.0,58,0.00,,,0.00,0,weatherlink.com 1.10,2013-04-19 19:10:00,
2013-04-19 12:26:00,68.4,52.0,30.21,SSE,153,3.0,6.0,57,0.00,,,0.00,0,weatherlink.com 1.10,2013-04-19 19:26:00,
2013-04-19 12:41:00,68.4,49.0,30.21,SSE,153,2.0,7.0,51,0.00,,,0.00,0,weatherlink.com 1.10,2013-04-19 19:41:00,
2013-04-19 12:56:00,70.0,48.0,30.20,South,176,4.0,7.0,45,0.00,,,0.00,0,weatherlink.com 1.10,2013-04-19 19:56:00,
2013-04-19 13:11:00,69.7,50.0,30.19,SSW,197,1.0,7.0,50,0.00,,,0.00,0,weatherlink.com 1.10,2013-04-19 20:11:00,
2013-04-19 13:26:00,68.2,48.0,30.19,SE,137,6.0,9.0,48,0.00,,,0.00,0,weatherlink.com 1.10,2013-04-19 20:26:00,
2013-04-19 13:41:00,67.6,49.0,30.18,East,101,6.0,8.0,52,0.00,,,0.00,0,weatherlink.com 1.10,2013-04-19 20:41:00,
2013-04-19 13:56:00,69.1,51.0,30.18,WSW,244,4.0,7.0,53,0.00,,,0.00,0,weatherlink.com 1.10,2013-04-19 20:56:00,
2013-04-19 14:11:00,69.4,50.0,30.18,South,176,4.0,7.0,51,0.00,,,0.00,0,weatherlink.com 1.10,2013-04-19 21:11:00,
2013-04-19 14:26:00,69.6,51.0,30.17,ESE,108,7.0,10.0,52,0.00,,,0.00,0,weatherlink.com 1.10,2013-04-19 21:26:00,
2013-04-19 14:41:00,69.2,51.0,30.16,SE,146,6.0,11.0,52,0.00,,,0.00,0,weatherlink.com 1.10,2013-04-19 21:41:00,
2013-04-19 14:56:00,69.3,52.0,30.15,SE,127,5.0,10.0,54,0.00,,,0.00,0,weatherlink.com 1.10,2013-04-19 21:56:00,
2013-04-19 15:11:00,69.3,51.0,30.15,SE,125,3.0,12.0,52,0.00,,,0.00,0,weatherlink.com 1.10,2013-04-19 22:11:00,
2013-04-19 15:26:00,68.4,51.0,30.14,SSE,151,1.0,9.0,54,0.00,,,0.00,0,weatherlink.com 1.10,2013-04-19 22:26:00,
2013-04-19 15:41:00,67.9,51.0,30.14,ESE,120,3.0,9.0,55,0.00,,,0.00,0,weatherlink.com 1.10,2013-04-19 22:41:00,
2013-04-19 15:56:00,67.3,52.0,30.13,SSW,198,6.0,10.0,59,0.00,,,0.00,0,weatherlink.com 1.10,2013-04-19 22:56:00,
2013-04-19 16:11:00,68.1,53.0,30.13,ESE,116,7.0,11.0,58,0.00,,,0.00,0,weatherlink.com 1.10,2013-04-19 23:11:00,
2013-04-19 16:26:00,67.4,52.0,30.12,SSE,153,2.0,9.0,59,0.00,,,0.00,0,weatherlink.com 1.10,2013-04-19 23:26:00,
2013-04-19 16:41:00,67.5,52.0,30.11,East,101,5.0,10.0,59,0.00,,,0.00,0,weatherlink.com 1.10,2013-04-19 23:41:00,
2013-04-19 16:56:00,67.1,52.0,30.11,SE,140,5.0,10.0,59,0.00,,,0.00,0,weatherlink.com 1.10,2013-04-19 23:56:00,
2013-04-19 17:11:00,66.7,53.0,30.11,SSE,148,2.0,12.0,61,0.00,,,0.00,0,weatherlink.com 1.10,2013-04-20 00:11:00,
2013-04-19 17:26:00,65.5,52.0,30.10,ESE,117,4.0,9.0,63,0.00,,,0.00,0,weatherlink.com 1.10,2013-04-20 00:26:00,
2013-04-19 17:41:00,64.5,52.0,30.10,SSE,149,3.0,8.0,64,0.00,,,0.00,0,weatherlink.com 1.10,2013-04-20 00:41:00,
2013-04-19 17:56:00,63.5,51.0,30.10,South,180,4.0,11.0,64,0.00,,,0.00,0,weatherlink.com 1.10,2013-04-20 00:56:00,
2013-04-19 18:11:00,63.0,51.0,30.09,SSE,148,4.0,9.0,66,0.00,,,0.00,0,weatherlink.com 1.10,2013-04-20 01:11:00,
2013-04-19 18:26:00,63.2,52.0,30.09,SE,136,1.0,8.0,66,0.00,,,0.00,0,weatherlink.com 1.10,2013-04-20 01:26:00,
2013-04-19 18:41:00,63.8,52.0,30.08,SE,128,1.0,5.0,65,0.00,,,0.00,0,weatherlink.com 1.10,2013-04-20 01:41:00,
2013-04-19 18:56:00,63.5,52.0,30.08,SE,142,1.0,4.0,66,0.00,,,0.00,0,weatherlink.com 1.10,2013-04-20 01:56:00,
2013-04-19 19:11:00,63.4,52.0,30.08,South,190,1.0,3.0,66,0.00,,,0.00,0,weatherlink.com 1.10,2013-04-20 02:11:00,
2013-04-19 19:26:00,63.4,52.0,30.07,ESE,123,3.0,5.0,66,0.00,,,0.00,0,weatherlink.com 1.10,2013-04-20 02:26:00,
2013-04-19 19:41:00,62.7,52.0,30.07,SE,129,0.0,2.0,68,0.00,,,0.00,0,weatherlink.com 1.10,2013-04-20 02:41:00,
2013-04-19 19:56:00,61.7,52.0,30.07,ESE,107,0.0,3.0,70,0.00,,,0.00,0,weatherlink.com 1.10,2013-04-20 02:56:00,
2013-04-19 20:11:00,61.8,51.0,30.07,ESE,113,1.0,2.0,68,0.00,,,0.00,0,weatherlink.com 1.10,2013-04-20 03:11:00,
2013-04-19 20:26:00,62.2,50.0,30.07,SSE,161,1.0,5.0,65,0.00,,,0.00,0,weatherlink.com 1.10,2013-04-20 03:26:00,
2013-04-19 20:41:00,62.7,50.0,30.07,SSE,167,2.0,4.0,64,0.00,,,0.00,0,weatherlink.com 1.10,2013-04-20 03:41:00,
2013-04-19 20:56:00,63.0,49.0,30.07,SSE,150,0.0,6.0,61,0.00,,,0.00,0,weatherlink.com 1.10,2013-04-20 03:56:00,
2013-04-19 21:11:00,62.5,49.0,30.08,NW,315,0.0,1.0,62,0.00,,,0.00,0,weatherlink.com 1.10,2013-04-20 04:11:00,
2013-04-19 21:26:00,62.3,49.0,30.08,SE,139,1.0,2.0,63,0.00,,,0.00,0,weatherlink.com 1.10,2013-04-20 04:26:00,
2013-04-19 21:41:00,62.8,49.0,30.08,NW,323,0.0,3.0,60,0.00,,,0.00,0,weatherlink.com 1.10,2013-04-20 04:41:00,
2013-04-19 21:56:00,64.8,49.0,30.08,WNW,291,0.0,9.0,56,0.00,,,0.00,0,weatherlink.com 1.10,2013-04-20 04:56:00,
2013-04-19 22:11:00,62.4,49.0,30.08,ESE,113,1.0,2.0,62,0.00,,,0.00,0,weatherlink.com 1.10,2013-04-20 05:11:00,
2013-04-19 22:26:00,63.0,48.0,30.08,NNW,330,1.0,2.0,58,0.00,,,0.00,0,weatherlink.com 1.10,2013-04-20 05:26:00,
2013-04-19 22:41:00,64.6,48.0,30.09,NE,38,0.0,12.0,55,0.00,,,0.00,0,weatherlink.com 1.10,2013-04-20 05:41:00,
2013-04-19 22:57:00,64.1,47.0,30.08,NE,44,2.0,8.0,55,0.00,,,0.00,0,weatherlink.com 1.10,2013-04-20 05:57:00,
2013-04-19 23:11:00,63.4,47.0,30.08,ENE,59,3.0,7.0,56,0.00,,,0.00,0,weatherlink.com 1.10,2013-04-20 06:11:00,
2013-04-19 23:26:00,62.8,48.0,30.08,NE,50,1.0,8.0,58,0.00,,,0.00,0,weatherlink.com 1.10,2013-04-20 06:26:00,
2013-04-19 23:41:00,61.9,48.0,30.08,WNW,294,2.0,5.0,60,0.00,,,0.00,0,weatherlink.com 1.10,2013-04-20 06:41:00,
2013-04-19 23:56:00,61.5,48.0,30.08,NE,42,2.0,6.0,61,0.00,,,0.00,0,weatherlink.com 1.10,2013-04-20 06:56:00,